Regional Weather Roundup
Issued by NWS

Home | Current Version | Previous Version | Graphics & Text | Print | Product List | Glossary On
Versions: 1 2 3 4 5 6 7 8 9 10 11 12 13 14 15 16 17 18 19 20 21 22 23 24 25 26 27 28 29 30 31 32 33 34 35 36 37 38 39 40 41 42 43 44 45 46 47 48 49 50
000
ASUS43 KLOT 210708
RWRIL

ILLINOIS REGIONAL WEATHER ROUNDUP
NATIONAL WEATHER SERVICE CHICAGO/ROMEOVILLE IL
200 AM CDT MON AUG 21 2017

NOTE: "FAIR" INDICATES FEW OR NO CLOUDS BELOW 12,000 FEET WITH NO
SIGNIFICANT WEATHER AND/OR OBSTRUCTIONS TO VISIBILITY.

* THESE STATIONS ARE NOT UNDER NWS QUALITY CONTROL. THEY ALSO MAY NOT
  REPORT WEATHER SUCH AS PRECIPITATION OR FOG.

ILZ001-002-007-009-015-016-024-210800-
NORTHWEST ILLINOIS

CITY           SKY/WX    TMP DP  RH WIND       PRES   REMARKS
MOLINE         FOG       67  65  93 CALM      30.00S VSB 1/2
STERLING*      CLEAR     67  67 100 E5        30.02F FOG
SAVANNA*       FOG       66  66  99 CALM      30.01F VSB 1/4
$$

ILZ003-004-008-010-011-017-018-210800-
NORTH CENTRAL ILLINOIS

CITY           SKY/WX    TMP DP  RH WIND       PRES   REMARKS
ROCKFORD       CLEAR     70  66  87 CALM      30.03F
FREEPORT*      FOG       64  64 100 CALM      30.04F VSB 1/2
ROCHELLE*      CLEAR     68  67  96 SE6       30.03F
DE KALB*       PTCLDY    70  68  95 SE6       30.05F
PERU*          CLEAR     70  67  91 SE6       30.03F
$$

ILZ005-006-012>014-019>023-210800-
NORTHEAST ILLINOIS

CITY           SKY/WX    TMP DP  RH WIND       PRES   REMARKS
CHICAGO-OHARE  CLOUDY    74  69  85 S9        30.03F
CHICAGO-MIDWAY CLOUDY    76  72  87 SE5       30.05F
AURORA         PTCLDY    71  70  96 SE6       30.04F
LANSING*       CLOUDY    74  65  74 CALM      30.06S
JOLIET*        PTCLDY    73  72  96 SE6       30.05F
WAUKEGAN       MOCLDY    70  70 100 CALM      30.04S FOG
DUPAGE AIRPORT CLOUDY    71  71 100 S9        30.03F
WHEELING       CLOUDY    75  68  78 S5        30.05F
MORRIS*        MOCLDY    72  70  93 E5        30.04F
ROMEOVILLE*    CLOUDY    70  67  90 S8        30.04F
NORTHERLY ISL    N/A     74  68  81 S8          N/A
$$

LMZ740>746-210800-
SOUTHERN LAKE MICHIGAN

STATION/POSITION SKY/WX   TEMP    WIND        PRES    VSBY  WAVE
                          AIR SEA DIR/SP/G                  HT/PER
                          (F)     (DEG/KT/KT) (MB)    (MI)  (FT/S)
SOUTHERN BUOY              74 72  130/  6/  6 1017.3F         1
WILMETTE HARBOR            76 74  180/  6/ 10   N/A           1
HARRISON CRIB              75     190/ 19/ 21   N/A
CALUMET HARBOR                    210/  2/  6 1017.4R
BURNS HARBOR               76     190/ 10/ 14 1018.3S
MICHIGAN CITY              77     160/ 10/ 12   N/A
MICHIGAN CITY 6N           76 75  190/ 10/ 12   N/A           1/ 2
ST. JOSEPH                 76 74  180/ 10/ 12 1017.7          1
$$

ILZ025>027-034>036-040-047-049-050-058-095>099-210800-
WEST-CENTRAL ILLINOIS

CITY           SKY/WX    TMP DP  RH WIND       PRES   REMARKS
QUINCY         CLOUDY    72  68  87 S6        30.03F
GALESBURG*     CLEAR     63  63  99 CALM      30.05R
MACOMB*        CLEAR     64  64  97 CALM      30.06R
JACKSONVILLE*  CLEAR     70  69  96 S3        30.04F
PITTSFIELD*    PTCLDY    71  68  90 CALM      30.05F
$$

ILZ028>032-037-038-041>044-048-051>054-059>061-210800-
CENTRAL ILLINOIS

CITY           SKY/WX    TMP DP  RH WIND       PRES   REMARKS
PONTIAC        CLEAR     70  69  98 SE5       30.06F
BLOOMINGTON    CLEAR     73  71  93 SW6       30.06F
DECATUR        CLOUDY    77  73  87 SW10      30.05F
PEORIA         CLEAR     70  70 100 CALM      30.04S
LACON*         CLEAR     71  69  95 S3        30.03S
LINCOLN*       PTCLDY    74  74 100 CALM      30.04F
SPRINGFIELD    CLOUDY    73  72  96 SW3       30.04F
TAYLORVILLE    CLOUDY    74  73  97 S5        30.05F
$$

ILZ033-039-045-046-055>057-062-063-210800-
EAST-CENTRAL ILLINOIS

CITY           SKY/WX    TMP DP  RH WIND       PRES   REMARKS
CHAMPAIGN      CLEAR     74  71  91 S7        30.06F
RANTOUL*       MOCLDY    75  73  94 CALM      30.05F THUNDER
MATTOON        CLOUDY    76  74  93 S7        30.06S
PARIS*         CLEAR     70  69  96 S5        30.08F
$$

ILZ079-100>102-210800-
SOUTHWEST ILLINOIS

CITY           SKY/WX    TMP DP  RH WIND       PRES   REMARKS
ALTON          CLOUDY    75  74  96 S7        30.06F
BELLEVILLE     PTCLDY    76  71  83 W3        30.08F
CAHOKIA*       MOCLDY    77  72  84 SE3       30.06F
SPARTA*        CLOUDY    76  69  81 S5        30.09S
$$

ILZ064>066-069>071-074>076-080>082-084>086-088>090-092>094-210800-
SOUTH-CENTRAL ILLINOIS

CITY           SKY/WX    TMP DP  RH WIND       PRES   REMARKS
CARBONDALE     MOCLDY    71  70  96 CALM      30.09S
CAIRO*         PTCLDY    69  69  99 CALM      30.09R
EFFINGHAM*     MOCLDY    76  74  91 S5        30.08S
MARION         MOCLDY    72  72 100 CALM      30.10S
CENTRALIA*     PTCLDY    74  72  93 S3        30.08R
SALEM*         PTCLDY    75  71  88 S3        30.08S
METROPOLIS*    MOCLDY    70  70  99 CALM      30.10R FOG
$$

ILZ067-068-072-073-078-083-087-091-210800-
SOUTHEAST ILLINOIS

CITY           SKY/WX    TMP DP  RH WIND       PRES   REMARKS
LAWRENCEVILLE  PTCLDY    73  71  93 SE7       30.09S
FLORA*         MOCLDY    73  71  96 S3        30.08S
FAIRFIELD*     MOCLDY    72  72  99 CALM      30.08S
HARRISBURG*    PTCLDY    71  70  98 CALM      30.10R
ROBINSON*      PTCLDY    69  69  98 S5        30.09S
CARMI*         PTCLDY    69  69  99 CALM      30.09R
$$

ABBREVIATIONS USED IN REMARKS
   TC - TEMPERATURE IN CELSIUS
  WCI - WIND CHILL INDEX
   HX - HEAT INDEX
  VSB - VISIBILITY
$$




USA.gov is the U.S. government's official web portal to all federal, state and local government web resources and services.